Regional Weather Roundup
Issued by NWS Columbia, SC

Home | Current Version | Previous Version | Text Only | Print | Product List | Glossary On
Versions: 1 2 3 4 5 6 7 8 9 10 11 12 13 14 15 16 17 18 19 20 21 22 23 24 25 26 27
000
ASUS42 KCAE 241710
RWRCAE
REGIONAL WEATHER ROUNDUP
NATIONAL WEATHER SERVICE COLUMBIA SC
100 PM EDT THU APR 24 2014

NOTE: "FAIR" INDICATES FEW OR NO CLOUDS BELOW 12,000 FEET WITH NO
SIGNIFICANT WEATHER AND/OR OBSTRUCTIONS TO VISIBILITY.

NOT ALL STATIONS ARE QUALITY CONTROLLED BY THE NATIONAL
WEATHER SERVICE. USE DATA WITH CAUTION...ESPECIALLY
DEWPOINT OBSERVATIONS.

SCZ001>056-GAZ040-063>065-077-241800-
...UPSTATE SOUTH CAROLINA...

CITY           SKY/WX    TMP DP  RH WIND       PRES   REMARKS
ANDERSON       SUNNY     70  37  29 E6        30.07F
LIBERTY        FAIR      68  32  26 MISG      30.08F
SPARTANBURG    FAIR      70  36  28 NE6       30.09F
CLEMSON        SUNNY     69  32  25 E8        30.09F
GREENVILLE     SUNNY     69  34  27 VRB3      30.09F
GREENWOOD      SUNNY     70  39  32 E9G16     30.09F
GREER          SUNNY     68  37  32 NE7       30.07F
ROCK HILL      SUNNY     68  36  30 VRB3      30.10F
CHESTER        FAIR      70  37  30 SE7       30.10F
LAURENS        FAIR      70  34  26 E8        30.09F


...CENTRAL SOUTH CAROLINA...

CITY           SKY/WX    TMP DP  RH WIND       PRES   REMARKS
COLUMBIA APT   SUNNY     73  40  30 E8        30.07F
COLUMBIA OWENS SUNNY     73  38  27 VRB6      30.08F
DARLINGTON     SUNNY     70  37  30 E9        30.11F
FLORENCE       SUNNY     70  38  31 E6        30.09F
MCENTIRE ANGB  SUNNY     72  40  31 NE9       30.08F
ORANGEBURG     SUNNY     72  41  32 VRB6      30.07F
SUMTER SHAW    SUNNY     71  40  32 E8        30.07F
NEWBERRY       FAIR      70  41  35 SE6       30.11F
AIKEN          FAIR      73  46  38 SE8       30.09F
BARNWELL       FAIR      75  45  33 E8        30.06F
MANNING        FAIR      73  45  35 CALM      30.07F
CAMDEN         FAIR      70  41  35 S6        30.10F
LANCASTER      FAIR      68  37  32 E3        30.10F
WINNSBORO      FAIR      70  37  30 E7        30.08F


...EASTERN AND COASTAL SOUTH CAROLINA...

CITY           SKY/WX    TMP DP  RH WIND       PRES   REMARKS
MYRTLE BEACH   SUNNY     66  43  42 E14       30.10F
N MYRTLE BCH   SUNNY     67  46  47 E13       30.10F
CONWAY         FAIR      70  43  37 NE5       30.09F
MARION         FAIR      68  37  32 CALM      30.10F
HARTSVILLE     FAIR      70  34  26 E8        30.10F
FLORENCE       SUNNY     70  38  31 E6        30.09F
DARLINGTON     SUNNY     70  37  30 E9        30.11F
CHARLESTON APT PTSUNNY   77  51  40 E14       30.06F
MOUNT PLEASANT LGT RAIN  70  52  52 E9G18     30.07F
WALTERBORO     SUNNY     77  55  47 E9        30.05F
BEAUFORT       MOSUNNY   76  56  49 S15G21    30.04F


...EASTERN GEORGIA...

CITY           SKY/WX    TMP DP  RH WIND       PRES   REMARKS
AUGUSTA BUSH F SUNNY     75  43  31 SE8       30.04F
AUGUSTA DANIEL SUNNY     75  39  27 VRB3      30.05F
THOMSON        SUNNY     74  48  39 E8        30.09F
WASHINGTON     HAZE      75  41  29 CALM      30.06F VSB 3/4
CLAXTON        FAIR      81  61  50 CALM      30.02F
SYLVANIA       SUNNY     79  56  45 CALM      30.04F
STATESBORO     SUNNY     78  51  39 SE3       30.02F
SAVANNAH       MOSUNNY   81  62  52 E13       30.02F


...SOUTHERN NORTH CAROLINA...

CITY           SKY/WX    TMP DP  RH WIND       PRES   REMARKS
CHARLOTTE      SUNNY     67  36  31 SE3       30.11F
MONROE         SUNNY     65  36  34 CALM      30.10F
WADESBORO      SUNNY     67  33  27 SE5       30.11F
ROCKINGHAM       N/A     68  35  30 SE7       30.11F
RUTHERFORDTON  SUNNY     64  33  31 W5        30.10F
ASHEVILLE      SUNNY     64  33  31 SE9       30.08F

$$



USA.gov is the U.S. government's official web portal to all federal, state and local government web resources and services.